Showing default

EUTE 28A (EB 1), 26719

Orbit data source: Space-Track

EUTE 28A (EB 1), 26719 is a payload satellite owned by Eutelsat (FR) in GEO that was launched on Thu, 08 Mar 2001 UTC via an ARIANE 5G launch vehicle from the French Guiana (FRGUI). Payload-class satellites include a variety of spacecraft equipped with specific instruments for various scientific and technological missions. These include communications satellites like Starlink; space stations such as the ISS; scientific satellites like the Hubble; Earth observation satellites from companies like Planet Labs, Umbra, and HawkEye 360; GPS; miniature CubeSats for education and research; and military/defense satellites.

Not visible in the next 10 days
Identifier
26719, 2001-011A
Orbit
GEO
Country
Flag of UnknownUnknown / EUTE
Related business
Manufacturer
Alcatel/Cannes
Mission
Non-operational Commercial Communications
Bus & Motor
SPACEBUS 3000B2, S400
Mass
3,050 kg wet, ~1,300 kg dry
Launch date (UTC)
2001-03-08 (25 years ago)
Launch vehicle
ARIANE 5G
Launch site
French Guiana (FRGUI)
Object type
Payload
Rocket body
Debris
Shape & HBR
Box + 2 Pan, 14.5 m
Radar Cross Section
27.172 m², Large (>1 m²)

Expand to show TLE details & history
Last TLE update: 7 hours ago

TLE from 7 hours ago
0 EUTE 28A (EB 1)
1 26719U 01011A   25308.54324035  .00000011  00000-0  00000-0 0  9994
2 26719   6.8133  69.8816 0004391 239.7461 327.4831  0.98790593 90169
Epoch: 2025-11-04T13:02Z
TLE epoch observation values (Epoch: 2025-11-04T13:02:15.966Z)
Latitude
-3.10843°
Longitude
37.2924°
Altitude
36,191.315 km
Speed
3.061 km/s
True Right ascension
18h 27m 33s
True Declination
-3° 06' 19"
Sunlit
Object was in daylight at epoch
Visualization orbit readout
Latitude
Unknown
Longitude
Unknown
Altitude
Unknown
Speed
Unknown
Apparent Right ascension
Unknown
Apparent Declination
Unknown
Sunlit
N/A
Visualization observer readout
Local Sidereal Time
16:00:00
Azimuth
Unknown
Elevation
Unknown
Doppler factor
Unknown
Orbital elements
Apogee altitude
36,226.744 km
Perigee altitude
36,189.345 km
Semi-major axis
42,586.182 km
Eccentricity
0.00044
Inclination
6.8133°
RAAN
69.8816°
Arg. of periapsis
239.7461°
True anomaly
327.45604°
Mean anomaly
327.4831°
Eccentric anomaly
327.46957°
Mean motion
0.24697 °/min
Orbital period
1,457.68 mins
BSTAR
0
Loading maneuver chart data...
Computing Atmospheric mass density...
Loading historical data...
Loading historical data...
Loading historical data...
Loading historical data...
Loading historical data...
Loading historical data...
Loading historical data...
Other satellites on launch #11 in the year 2001 (2001-03-08 UTC)

Documentation

Showing up to 5 results
|